ARIANE 2 DEB, 27649

Orbit data source: Space-Track

ARIANE 2 DEB, 27649 is space debris in HEO originally from a launch on Fri, 27 Jan 1989 UTC launched from the French Guiana (FRGUI). Debris objects in space refer to the collection of defunct objects orbiting the Earth. Examples of debris include non-operational satellites, rocket bodies, and fragments generated from explosions, collisions, or faulty payload assembly.

Loading next visibility...
Identifier
27649, 1989-006AD
Orbit
HEO
Country
Flag of FRFR
Related business
Manufacturer
EADS/LV
Mission
Spacecraft
Bus & Motor
Unknown
Mass
Unknown
Launch date (UTC)
1989-01-27 (37 years ago)
Launch vehicle
Unknown
Launch site
French Guiana (FRGUI)
Object type
Payload
Rocket body
Debris
Shape & HBR
Unknown shape, 0.2 m
Radar Cross Section
Medium (>0.1 m² and <1 m²)

Expand to show TLE details & history
Last TLE update: 4 months ago

TLE from 4 months ago
0 ARIANE 2 DEB
1 27649U 89006AD  25183.76953880 -.00000197  00000-0  00000-0 0  9994
2 27649   8.5896 332.7437 6983464 306.6678 296.9762  2.22833661 98035
Epoch: 2025-07-02T18:28Z
TLE epoch observation values (Epoch: 2025-07-02T18:28:08.152Z)
Latitude
2.33743°
Longitude
-60.98427°
Altitude
22,029.824 km
Speed
3.459 km/s
True Right ascension
09h 08m 22s
True Declination
2° 20' 02"
Sunlit
Object was in daylight at epoch
Visualization orbit readout
Latitude
Unknown
Longitude
Unknown
Altitude
Unknown
Speed
Unknown
Apparent Right ascension
Unknown
Apparent Declination
Unknown
Sunlit
N/A
Visualization observer readout
Local Sidereal Time
05:00:08
Azimuth
Unknown
Elevation
Unknown
Doppler factor
Unknown
Orbital elements
Apogee altitude
35,680.652 km
Perigee altitude
1,092.179 km
Semi-major axis
24,764.553 km
Eccentricity
0.69835
Inclination
8.5896°
RAAN
332.7437°
Arg. of periapsis
306.6678°
True anomaly
217.59931°
Mean anomaly
296.9762°
Eccentric anomaly
257.85887°
Mean motion
0.55693 °/min
Orbital period
646.41 mins
BSTAR
0
Loading maneuver chart data...
Computing Atmospheric mass density...
Loading historical data...
Loading historical data...
Loading historical data...
Loading historical data...
Loading historical data...
Loading historical data...
Loading historical data...

Documentation

Showing up to 5 results
|